Weather History for Sheridan, WY

Change the Weather History Date:

Wednesday, December 12, 2012

  Actual Average Record
Temperature  
Mean Temperature 32 °F 23 °F  
Max Temperature 42 °F 35 °F 66 °F (1924)
Min Temperature 22 °F 10 °F -24 °F (1922)
Degree Days  
Heating Degree Days 33 42  
Month to date heating degree days 404 494  
Since 1 July heating degree days 2088 2372  
Cooling Degree Days 0 0  
Month to date cooling degree days 0 0  
Year to date cooling degree days 664 419  
Moisture  
Dew Point 24 °F    
Average Humidity 69    
Maximum Humidity 85    
Minimum Humidity 53    
Precipitation  
Precipitation 0.00 in 0.01 in 0.42 in (1955)
Month to date precipitation 0.29 0.23  
Year to date precipitation 9.32 13.83  
Sea Level Pressure  
Sea Level Pressure 29.70 in    
Wind  
Wind Speed 6 mph (NW)    
Max Wind Speed 16 mph    
Max Gust Speed 18 mph    
Visibility 10 miles    
Events      
T = Trace of Precipitation, MM = Missing Value Source: NWS Daily Summary

Daily Weather History Graph

Daily Weather History Graph

Search for Another Location

Airport:

Trip Planner

Search our weather history database for the weather conditions in past years. The results will help you decide how hot, cold, wet, or windy it might be!

Date:

Astronomy

Dec. 12, 2012 Rise Set
Actual Time 7:36 AM MST 4:27 PM MST
Civil Twilight 7:02 AM MST 5:00 PM MST
Nautical Twilight 6:25 AM MST 5:37 PM MST
Astronomical Twilight 5:50 AM MST 6:13 PM MST
Moon 6:43 AM MST (12/12) 4:08 PM MST (12/12)
Length of Visible Light 9h 57m
Length of Day
8h 50m
Waning Crescent, 0% of the Moon is Illuminated
Dec 12
Waning Crescent
Dec 13
New
Dec 19
First Quarter
Dec 28
Full
Jan 4
Last Quarter

Hourly Weather History & Observations

Time (MST) Temp. Windchill Dew Point Humidity Pressure Visibility Wind Dir Wind Speed Gust Speed Precip Events Conditions
12:53 AM 28.9 °F 25.2 °F 23.0 °F 78% 29.61 in 10.0 mi North 3.5 mph - N/A   Mostly Cloudy
1:53 AM 30.9 °F 26.2 °F 23.0 °F 72% 29.61 in 10.0 mi North 4.6 mph - N/A   Overcast
2:53 AM 30.0 °F 26.5 °F 23.0 °F 75% 29.62 in 10.0 mi NNW 3.5 mph - N/A   Overcast
3:53 AM 30.0 °F 23.2 °F 24.1 °F 79% 29.62 in 10.0 mi South 6.9 mph - N/A   Overcast
4:53 AM 30.9 °F 26.2 °F 25.0 °F 79% 29.62 in 10.0 mi West 4.6 mph - N/A   Overcast
5:53 AM 30.9 °F 27.5 °F 24.1 °F 76% 29.60 in 10.0 mi NNW 3.5 mph - N/A   Overcast
6:53 AM 32.0 °F 28.7 °F 24.1 °F 73% 29.62 in 10.0 mi North 3.5 mph - N/A   Overcast
7:53 AM 28.9 °F 21.9 °F 23.0 °F 78% 29.64 in 10.0 mi NNW 6.9 mph - N/A   Clear
8:53 AM 30.0 °F 24.1 °F 23.0 °F 75% 29.63 in 10.0 mi NW 5.8 mph - N/A   Clear
9:53 AM 35.1 °F - 24.1 °F 64% 29.63 in 10.0 mi Calm Calm - N/A   Clear
10:53 AM 34.0 °F 31.0 °F 24.1 °F 67% 29.64 in 10.0 mi North 3.5 mph - N/A   Clear
11:53 AM 36.0 °F - 23.0 °F 59% 29.62 in 10.0 mi Calm Calm - N/A   Clear
12:53 PM 37.0 °F 32.4 °F 24.1 °F 59% 29.62 in 10.0 mi NNW 5.8 mph - N/A   Clear
1:53 PM 37.0 °F 32.4 °F 25.0 °F 62% 29.62 in 10.0 mi North 5.8 mph - N/A   Clear
2:53 PM 42.1 °F - 26.1 °F 53% 29.63 in 10.0 mi Calm Calm - N/A   Clear
3:53 PM 34.0 °F 28.8 °F 26.1 °F 73% 29.69 in 10.0 mi South 5.8 mph - N/A   Clear
4:53 PM 30.0 °F 24.1 °F 25.0 °F 82% 29.72 in 10.0 mi NNW 5.8 mph - N/A   Clear
5:53 PM 32.0 °F 22.1 °F 25.0 °F 75% 29.76 in 10.0 mi WNW 13.8 mph - N/A   Clear
6:53 PM 30.0 °F 20.0 °F 24.1 °F 79% 29.81 in 10.0 mi West 12.7 mph - N/A   Scattered Clouds
7:53 PM 28.9 °F 22.8 °F 21.9 °F 75% 29.86 in 10.0 mi NW 5.8 mph - N/A   Clear
8:53 PM 30.9 °F 22.2 °F 26.1 °F 82% 29.88 in 10.0 mi WNW 10.4 mph - N/A   Clear
9:53 PM 30.0 °F 19.1 °F 25.0 °F 82% 29.88 in 10.0 mi WNW 15.0 mph - N/A   Clear
10:53 PM 26.1 °F 19.4 °F 23.0 °F 88% 29.92 in 10.0 mi West 5.8 mph - N/A   Partly Cloudy
11:53 PM 23.0 °F 18.4 °F 19.9 °F 88% 29.94 in 10.0 mi South 3.5 mph - N/A   Clear